Weather in Klenovskoye

Russia / Sverdlovsk Oblast     56°49′18″N   58°37′13″E
temp.,
°C
wind,
m/s
gust,
m/s
humid.,
%
clouds,
%
prec.,
mm/h
press.,
hPa
HPBL,
m
17 september, fri
fri1723:00+3w51098100 1.2 10011086
02:00+2wnw5995100 0.4 10021036
05:00+3wnw4997100 0.5 1002823
08:00+4nw4998100 0.1 1003785
11:00+5nw2696100 0.4 1004919
14:00+5nw3795100 0.3 1006872
17:00+5wnw4794100 0.6 1007927
20:00+4wnw3698100 1.0 1009864
18 september, sat
sat1823:00+4nw3598100 2.1 1009785
02:00+3nw2697100 0.3 1010395
05:00+1wnw2799100 0.3 1010336
08:00+2wnw3794100 0.0 1010478
11:00+3nw4894100 0.3 1010783
14:00+4nw5885100 0.6 10111007
17:00+3wnw5109096 1.3 10111058
20:00+2wnw5118989 0.4 1012920
19 september, sun
sun1923:00+1wnw51296100 0.5 1012943
02:00+1wnw61297100 0.3 10111048
05:00+1wnw61297100 0.7 10121101
08:00+1wnw61297100 0.3 10131032
11:00+1nw61191100 0.5 10151065
14:00+3nw61179100 0.2 10161234
17:00+3nw61175100 0.3 10191166
20:00+2nw4972100 0.0 10201156
20 september, mon
mon2023:00+2nw4869100 0.0 10211139
02:00+1nw3775100 0.0 1022770
05:00+1nw3672100 0.0 1024715
08:00+1wnw2670100 0.0 1025698
11:00+4nnw2359100 0.0 10271227
14:00+4nnw1261100 0.0 10271057
17:00+4nnw1266100 0.0 1028464
20:00+3ne1176100 0.0 102916
21 september, tue
tue2123:00+3ese1174100 0.0 103021
02:00+2e1177100 0.0 103126
05:00+2e118296 0.0 103026
08:00+1ese11847 0.0 103034
11:00+6e22565 0.0 1029873
14:00+10ese01475 0.0 10271074
17:00+10nne00491 0.0 1025994
20:00+4ene00750 0.0 102610